This is the latest recevied weather packets stored in our database for station/object K4PAR-1. If no packets are shown the sender has not sent any weather packets the latest 10 day(s).
| Time | Temp. | Humidity | Pressure | Rain* | Wind** | Luminosity | Snow |
|---|---|---|---|---|---|---|---|
| 1788471020 | 35.56° C | - | - | 0 mm | 0 m/s | - | - |
| 1788471015 | 36.11° C | - | - | 0 mm | 0 m/s | - | - |
| 1788470845 | 35.56° C | - | - | 0 mm | 0 m/s | - | - |
| 1788470602 | 36.11° C | - | - | 0 mm | 0 m/s | - | - |
| 1788470117 | 36.11° C | - | - | 0 mm | 0 m/s | - | - |
| 1788469957 | 35.56° C | - | - | 0 mm | 0.45 m/s, 267° | - | - |
| 1788469874 | 35.56° C | - | - | 0 mm | 0.45 m/s, 267° | - | - |
| 1788469713 | 35.56° C | - | - | 0 mm | 0.45 m/s, 264° | - | - |
| 1788469632 | 35.56° C | - | - | 0 mm | 0.45 m/s, 264° | - | - |
| 1788469445 | 35.56° C | - | - | 0 mm | 0.45 m/s, 295° | - | - |
| 1788469389 | 35.56° C | - | - | 0 mm | 0.45 m/s, 295° | - | - |
| 1788469146 | 35.56° C | - | - | 0 mm | 0 m/s | - | - |
| 1788468903 | 36.11° C | - | - | 0 mm | 0 m/s | - | - |
| 1788468661 | 35.56° C | - | - | 0 mm | 0.89 m/s, 194° | - | - |
| 1788468451 | 36.11° C | - | - | 0 mm | 1.34 m/s, 257° | - | - |
| 1788468418 | 36.11° C | - | - | 0 mm | 1.34 m/s, 257° | - | - |
| 1788468176 | 38.33° C | - | - | 0 mm | 0 m/s | - | - |
| 1788467690 | 36.67° C | - | - | 0 mm | 0.89 m/s, 270° | - | - |
| 1788467448 | 36.67° C | - | - | 0 mm | 0 m/s | - | - |
| 1788467266 | 36.11° C | - | - | 0 mm | 0.45 m/s, 214° | - | - |
| 1788467205 | 36.11° C | - | - | 0 mm | 0.45 m/s, 214° | - | - |
| 1788466962 | 36.11° C | - | - | 0 mm | 1.34 m/s, 293° | - | - |
| 1788466720 | 35.56° C | - | - | 0 mm | 1.79 m/s, 260° | - | - |
| 1788466234 | 36.11° C | - | - | 0 mm | 0.45 m/s, 214° | - | - |
| 1788465992 | 37.22° C | - | - | 0 mm | 0 m/s | - | - |
* Rain latest hour (hover to see other rain measurements)
** Current wind speed in m/s (hover to see current wind gust speed)